• In Hungary
  • List of Countries
  • For 7 days
  • Water Temperature
  • Satellite Maps
  • Weather Map
  • News
  • Weather Widgets
  • user-avatar
    Login

    Hourly Weather Sangrave

    Today, 16 December, Saturday

    Time Temperature Precipitation Wind Pressure Humidity
    00:00 +21°C° 0 mm 5 mps 754 mmHg 19%
    01:00 +20°C° 0 mm 5 mps 753 mmHg 20%
    02:00 +20°C° 0 mm 4 mps 753 mmHg 21%
    03:00 +19°C° 0 mm 5 mps 753 mmHg 21%
    04:00 +19°C° 0 mm 5 mps 753 mmHg 22%
    05:00 +19°C° 0 mm 5 mps 753 mmHg 22%
    06:00 +19°C° 0 mm 5 mps 753 mmHg 21%
    07:00 +20°C° 0 mm 6 mps 754 mmHg 20%
    08:00 +21°C° 0 mm 6 mps 754 mmHg 19%
    09:00 +24°C° 0 mm 6 mps 754 mmHg 17%
    10:00 +27°C° 0 mm 6 mps 754 mmHg 14%
    11:00 +29°C° 0 mm 6 mps 754 mmHg 12%
    12:00 +30°C° 0 mm 5 mps 753 mmHg 11%
    13:00 +32°C° 0 mm 4 mps 753 mmHg 10%
    14:00 +33°C° 0 mm 4 mps 752 mmHg 9%
    15:00 +31°C° 0 mm 3 mps 752 mmHg 9%
    16:00 +30°C° 0 mm 3 mps 752 mmHg 10%
    17:00 +30°C° 0 mm 3 mps 752 mmHg 10%
    18:00 +28°C° 0 mm 4 mps 753 mmHg 11%
    19:00 +27°C° 0 mm 4 mps 753 mmHg 12%
    20:00 +26°C° 0 mm 5 mps 754 mmHg 13%
    21:00 +26°C° 0 mm 5 mps 754 mmHg 13%
    22:00 +25°C° 0 mm 5 mps 754 mmHg 14%
    23:00 +23°C° 0 mm 5 mps 754 mmHg 14%

    Tomorrow, 17 December, Sunday

    Time Temperature Precipitation Wind Pressure Humidity
    00:00 +23°C° 0 mm 5 mps 754 mmHg 15%
    01:00 +22°C° 0 mm 5 mps 753 mmHg 15%
    02:00 +22°C° 0 mm 5 mps 753 mmHg 16%
    03:00 +21°C° 0 mm 5 mps 753 mmHg 16%
    04:00 +21°C° 0 mm 5 mps 753 mmHg 17%
    05:00 +21°C° 0 mm 5 mps 753 mmHg 17%
    06:00 +21°C° 0 mm 5 mps 753 mmHg 17%
    07:00 +22°C° 0 mm 6 mps 753 mmHg 17%
    08:00 +22°C° 0 mm 6 mps 754 mmHg 17%
    09:00 +24°C° 0 mm 6 mps 754 mmHg 15%
    10:00 +27°C° 0 mm 6 mps 754 mmHg 14%
    11:00 +29°C° 0 mm 6 mps 753 mmHg 12%
    12:00 +30°C° 0 mm 5 mps 753 mmHg 11%
    13:00 +32°C° 0 mm 5 mps 752 mmHg 10%
    14:00 +32°C° 0 mm 4 mps 752 mmHg 10%
    15:00 +30°C° 0 mm 4 mps 752 mmHg 10%
    16:00 +30°C° 0 mm 4 mps 752 mmHg 11%
    17:00 +29°C° 0 mm 4 mps 752 mmHg 11%
    18:00 +27°C° 0 mm 4 mps 752 mmHg 13%
    19:00 +26°C° 0 mm 4 mps 753 mmHg 14%
    20:00 +25°C° 0 mm 5 mps 753 mmHg 15%
    21:00 +23°C° 0 mm 5 mps 753 mmHg 17%
    22:00 +22°C° 0 mm 5 mps 753 mmHg 19%
    23:00 +22°C° 0 mm 5 mps 753 mmHg 21%

    Day after tomorrow, 18 December, Monday

    Time Temperature Precipitation Wind Pressure Humidity
    00:00 +21°C° 0 mm 5 mps 753 mmHg 23%
    01:00 +21°C° 0 mm 4 mps 753 mmHg 24%
    02:00 +20°C° 0 mm 4 mps 752 mmHg 26%
    03:00 +20°C° 0 mm 4 mps 752 mmHg 27%
    04:00 +20°C° 0 mm 4 mps 752 mmHg 28%
    05:00 +19°C° 0 mm 4 mps 752 mmHg 30%
    06:00 +20°C° 0 mm 5 mps 752 mmHg 29%
    07:00 +21°C° 0 mm 5 mps 753 mmHg 27%
    08:00 +22°C° 0 mm 6 mps 753 mmHg 26%
    09:00 +24°C° 0 mm 6 mps 753 mmHg 23%
    10:00 +27°C° 0 mm 6 mps 753 mmHg 19%
    11:00 +29°C° 0 mm 6 mps 753 mmHg 16%
    12:00 +30°C° 0 mm 5 mps 752 mmHg 14%
    13:00 +32°C° 0 mm 4 mps 751 mmHg 13%
    14:00 +33°C° 0 mm 4 mps 751 mmHg 12%
    15:00 +31°C° 0 mm 3 mps 750 mmHg 12%
    16:00 +30°C° 0 mm 3 mps 750 mmHg 13%
    17:00 +29°C° 0 mm 3 mps 750 mmHg 14%
    18:00 +28°C° 0 mm 3 mps 751 mmHg 17%
    19:00 +27°C° 0 mm 4 mps 751 mmHg 21%
    20:00 +26°C° 0 mm 4 mps 752 mmHg 24%
    21:00 +25°C° 0 mm 4 mps 752 mmHg 26%
    22:00 +23°C° 0 mm 5 mps 752 mmHg 27%
    23:00 +23°C° 0 mm 5 mps 752 mmHg 29%

    19 December, Tuesday

    Time Temperature Precipitation Wind Pressure Humidity
    00:00 +22°C° 0 mm 5 mps 751 mmHg 30%
    01:00 +22°C° 0 mm 5 mps 751 mmHg 30%
    02:00 +21°C° 0 mm 5 mps 751 mmHg 31%
    03:00 +21°C° 0 mm 5 mps 751 mmHg 29%
    04:00 +20°C° 0 mm 5 mps 751 mmHg 26%
    05:00 +20°C° 0 mm 5 mps 751 mmHg 24%
    06:00 +21°C° 0 mm 6 mps 751 mmHg 21%
    07:00 +22°C° 0 mm 6 mps 752 mmHg 19%
    08:00 +23°C° 0 mm 7 mps 752 mmHg 16%
    09:00 +26°C° 0 mm 7 mps 752 mmHg 15%
    10:00 +27°C° 0 mm 7 mps 752 mmHg 14%
    11:00 +29°C° 0 mm 7 mps 752 mmHg 12%
    12:00 +30°C° 0 mm 7 mps 751 mmHg 12%
    13:00 +32°C° 0 mm 6 mps 751 mmHg 11%
    14:00 +32°C° 0 mm 6 mps 750 mmHg 11%
    15:00 +32°C° 0 mm 5 mps 750 mmHg 12%
    16:00 +30°C° 0 mm 5 mps 750 mmHg 13%
    17:00 +29°C° 0 mm 4 mps 750 mmHg 14%
    18:00 +28°C° 0 mm 5 mps 751 mmHg 16%
    19:00 +27°C° 0 mm 5 mps 751 mmHg 18%
    20:00 +26°C° 0 mm 6 mps 752 mmHg 20%
    21:00 +24°C° 0 mm 6 mps 752 mmHg 22%
    22:00 +23°C° 0 mm 6 mps 752 mmHg 24%
    23:00 +23°C° 0 mm 7 mps 752 mmHg 27%

    20 December, Wednesday

    Time Temperature Precipitation Wind Pressure Humidity
    00:00 +22°C° 0 mm 7 mps 752 mmHg 28%
    01:00 +21°C° 0 mm 7 mps 751 mmHg 30%
    02:00 +20°C° 0 mm 7 mps 751 mmHg 31%
    03:00 +20°C° 0 mm 7 mps 751 mmHg 33%
    04:00 +18°C° 0 mm 7 mps 751 mmHg 34%
    05:00 +18°C° 0 mm 7 mps 751 mmHg 35%
    06:00 +18°C° 0 mm 8 mps 752 mmHg 34%
    07:00 +20°C° 0 mm 8 mps 752 mmHg 33%
    08:00 +19°C° 0 mm 9 mps 753 mmHg 31%
    09:00 +22°C° 0 mm 9 mps 753 mmHg 28%
    10:00 +24°C° 0 mm 8 mps 753 mmHg 24%
    11:00 +27°C° 0 mm 8 mps 753 mmHg 20%
    12:00 +28°C° 0 mm 8 mps 752 mmHg 19%
    13:00 +29°C° 0 mm 7 mps 752 mmHg 17%
    14:00 +29°C° 0 mm 7 mps 751 mmHg 15%
    15:00 +29°C° 0 mm 7 mps 751 mmHg 16%
    16:00 +28°C° 0 mm 6 mps 752 mmHg 17%
    17:00 +27°C° 0 mm 6 mps 752 mmHg 17%
    18:00 +26°C° 0 mm 6 mps 752 mmHg 18%
    19:00 +26°C° 0 mm 7 mps 753 mmHg 19%
    20:00 +24°C° 0 mm 7 mps 754 mmHg 19%
    21:00 +23°C° 0 mm 7 mps 754 mmHg 19%
    22:00 +22°C° 0 mm 8 mps 754 mmHg 20%
    23:00 +22°C° 0 mm 8 mps 754 mmHg 20%

    21 December, Thursday

    Time Temperature Precipitation Wind Pressure Humidity
    00:00 +21°C° 0 mm 8 mps 754 mmHg 21%
    01:00 +20°C° 0 mm 8 mps 753 mmHg 22%
    02:00 +20°C° 0 mm 8 mps 753 mmHg 22%
    03:00 +18°C° 0 mm 8 mps 753 mmHg 23%
    04:00 +18°C° 0 mm 8 mps 753 mmHg 24%
    05:00 +17°C° 0 mm 8 mps 753 mmHg 26%
    06:00 +18°C° 0 mm 8 mps 754 mmHg 25%
    07:00 +18°C° 0 mm 9 mps 754 mmHg 25%
    08:00 +18°C° 0 mm 9 mps 755 mmHg 25%
    09:00 +19°C° 0 mm 9 mps 755 mmHg 23%
    10:00 +22°C° 0 mm 9 mps 755 mmHg 21%
    11:00 +23°C° 0 mm 9 mps 755 mmHg 18%
    12:00 +24°C° 0 mm 8 mps 754 mmHg 17%
    13:00 +24°C° 0 mm 8 mps 754 mmHg 15%
    14:00 +26°C° 0 mm 8 mps 753 mmHg 14%
    15:00 +26°C° 0 mm 8 mps 753 mmHg 14%
    16:00 +24°C° 0 mm 7 mps 754 mmHg 13%
    17:00 +24°C° 0 mm 7 mps 754 mmHg 13%
    18:00 +23°C° 0 mm 7 mps 754 mmHg 14%
    19:00 +22°C° 0 mm 7 mps 755 mmHg 14%
    20:00 +21°C° 0 mm 7 mps 755 mmHg 15%
    21:00 +20°C° 0 mm 7 mps 755 mmHg 15%
    22:00 +20°C° 0 mm 7 mps 755 mmHg 16%
    23:00 +18°C° 0 mm 8 mps 755 mmHg 16%
    Show more